Regional Weather Roundup
Issued by NWS

Home | Current Version | Previous Version | Text Only | Print | Product List | Glossary Off
Versions: 1 2 3 4 5 6 7 8 9 10 11 12 13 14 15 16 17 18 19 20 21 22 23 24 25 26 27 28 29 30 31 32 33 34 35 36 37 38 39 40 41 42 43 44 45 46 47 48 49 50

000
ASUS45 KTFX 282319
RWRMT
MONTANA HOURLY WEATHER ROUNDUP
NATIONAL WEATHER SERVICE GREAT FALLS MT
519 PM MDT MON JUL 28 2014

NOTE: "FAIR" INDICATES FEW OR NO CLOUDS BELOW 12000 FEET WITH NO
SIGNIFICANT WEATHER AND/OR OBSTRUCTIONS TO VISIBILITY.

* THESE STATIONS ARE NOT UNDER NWS QUALITY CONTROL. THEY DO NOT
   REPORT WEATHER SUCH AS PRECIPITATION OR FOG.

MTZ001>007-043-290000-
WEST OF THE DIVIDE
CITY           SKY/WX    TMP DP  RH WIND       PRES   REMARKS
KALISPELL      PTCLDY    88  46  23 SE5       30.13F
MISSOULA       PTCLDY    93  37  14 N9        30.12F
BUTTE          CLOUDY    84  37  19 S13       30.27F
MULLAN PASS    PTCLDY    79  37  22 VRB3      30.33F
* ESSEX        N/A       89  37  16 NE1        N/A
* LINCOLN      N/A       89  38  17 NE5G13     N/A
* LOOKOUT PASS N/A       84  39  20 N5G11      N/A
* POLSON       N/A       88  47  24 S2G7       N/A
* RONAN APT    PTCLDY    88  48  25 W5         N/A
* SEELEY LAKE  N/A       88  38  17 NW4G11     N/A
* THOMP F APT  MOCLDY    80  34  19 W2G17      N/A
* YAAK HILL    N/A      100  40  13 SW2        N/A
$$

MTZ008-052>055-290000-
SOUTHWEST MONTANA
CITY           SKY/WX    TMP DP  RH WIND       PRES   REMARKS
BOZEMAN        CLOUDY    84  46  26 SE7       30.22F
DILLON         CLOUDY    75  54  48 SW7       30.26F
W YELLOWSTONE  CLOUDY    75  36  24 N9        30.36R
* THREE FORKS  CLOUDY    86  48  27 N/A        N/A
* BOULDER HILL N/A       80  40  24 NE6        N/A
* MONIDA PASS  N/A       74  35  24 VRB10G23    N/A
* RAYNOLDS PAS N/A       77  73  88 NW9        N/A
* WHITEHALL    N/A       87  47  25 S4         N/A
* WISE RIVER   N/A       81  39  22 SW8G15     N/A
$$

MTZ009>010-012-014-046-048-049-054-290000-
EAST SLOPES AND CENTRAL MONTANA
CITY           SKY/WX    TMP DP  RH WIND       PRES   REMARKS
CUT BANK       PTCLDY    88  39  18 S7        30.19F
GREAT FALLS    PTCLDY    90  37  15 N3        30.15F
HELENA         CLOUDY    91  43  19 E13       30.14F
MALMSTROM AFB  MOCLDY    91  37  15 E6G13     30.15F
* CONRAD       CLEAR     90  52  27 N/A        N/A
* DEARBORN     N/A       90  45  21 N11G16     N/A
* EAST GLACIER N/A       81  47  30 S7G14      N/A
* SAINT MARY   N/A       88  46  23 SE5G12     N/A
* SWEET GRASS  N/A       89  38  17 E7G16      N/A
* WHITE SULPH  N/A       84  43  24 N4         N/A
$$

MTZ011-013-016-021-035-040-045-047-050-051-290000-
NORTH CENTRAL MONTANA
CITY           SKY/WX    TMP DP  RH WIND       PRES   REMARKS
HAVRE          PTCLDY    93  39  15 E14G25    30.13F
LEWISTOWN      MOCLDY    90  43  19 E12       30.21F
* FORT BENTON  PTCLDY    93  39  15 NE7       30.11F
* CHESTER      N/A       90  38  16 E4G9       N/A
* DENTON       N/A       90  45  21 E9         N/A
* JUDITH GAP   N/A       84  42  23 S9         N/A
* LOMA         N/A       94  39  15 E9G17      N/A
$$

MTZ017>020-022>027-061-062-290000-
NORTHEAST MONTANA
CITY           SKY/WX    TMP DP  RH WIND       PRES   REMARKS
GLASGOW        CLEAR     88  45  22 S7        30.18F
GLENDIVE       CLEAR     82  46  28 E7        30.22F
JORDAN         PTCLDY    90  39  17 E6        30.18F
SIDNEY         CLEAR     82  48  31 NE6       30.22F
WOLF POINT     PTCLDY    88  46  23 N/A       30.19F
* BEAVER HILL  N/A       81  48  32 N1G9       N/A
* CIRCLE       N/A       86  51  30 N/A        N/A
* LINDSAY DVD  N/A       83  49  31 NE6        N/A
$$

MTZ028>042-056>058-290000-
SOUTHCENTRAL AND SOUTHEAST MONTANA
CITY           SKY/WX    TMP DP  RH WIND       PRES   REMARKS
BAKER          CLEAR     86  48  27 E10G17    30.24F
BILLINGS       MOCLDY    91  45  20 NE14      30.18F
LIVINGSTON     CLOUDY    86  39  19 E12       30.23S
MILES CITY     PTCLDY    88  45  22 NE15      30.18F
* LAUREL APT   MOCLDY    91  45  20 N8         N/A
* ROUNDUP APT  PTCLDY    90  43  19 NE10G22    N/A
* ALZADA       N/A       84  47  28 NE5G11     N/A
* HYSHAM       N/A       88  48  25 E11G19     N/A
* LAME DEER    N/A       84  44  25 E6G12      N/A
* REED POINT   N/A       87  47  25 E7G13      N/A
* ROSCOE HILL  N/A       80  43  27 NE6G11     N/A
$$

REGIONAL REPORTS...DAKOTAS
CITY           SKY/WX    TMP DP  RH WIND       PRES   REMARKS
WILLISTON      MOCLDY    81  50  34 E8        30.23F
DICKINSON      FAIR      79  54  42 NE9       30.25F
CROSBY         MOCLDY    73  59  62 E6        30.24F
TIOGA          CLEAR     75  54  48 NE5       30.28F
WATFORD CITY   FAIR      75  54  48 SE7       30.22F
BISMARCK       FAIR      75  48  39 NW9       30.26F
GRAND FORKS    PTCLDY    75  54  48 N8        30.20F
FARGO          PTCLDY    73  52  48 NW7       30.21F
BUFFALO SD     CLEAR     79  54  42 E13G18    30.20F
RAPID CITY     FAIR      81  54  39 SE8       30.25F
$$

REGIONAL REPORTS...WYOMING/IDAHO/WASHINGTON
CITY           SKY/WX    TMP DP  RH WIND       PRES   REMARKS
GILLETTE       CLEAR     88  46  23 CALM      30.22F
SHERIDAN       PTCLDY    90  46  22 E5        30.19F
YELLOWSTONE LA CLOUDY    73  32  22 W9        30.48R
SALMON         CLOUDY    86  55  35 SW3       30.11F
MULLAN PASS    PTCLDY    79  37  22 VRB3      30.33S
SAND POINT     CLEAR     91  43  19 CALM      30.06F
SPOKANE        FAIR      97  39  13 CALM      30.06F
$$

REGIONAL REPORTS...ALBERTA
CITY           SKY/WX    TMP DP  RH WIND       PRES   REMARKS
CALGARY        FAIR      82  50  33 SE7       30.19F
LETHBRIDGE     PTCLDY    84  61  46 E8        30.17F HI  84
MEDICINE HAT   MOCLDY    90  43  19 E8        30.15F
EDMONTON       FAIR      79  64  60 SE9       30.16S
WATERTON GATE  N/A       84  43  24 NE3        N/A
CARDSTON       N/A       84  52  33 NE5        N/A
MILK RIVER     N/A       90  43  19 NE12G17    N/A
$$

REGIONAL REPORTS...SASKATCHEWAN
CITY           SKY/WX    TMP DP  RH WIND       PRES   REMARKS
SWIFT CURRENT  FAIR      81  50  34 E10       30.23S
MOOSE JAW      PTCLDY    79  59  50 N6        30.24F
REGINA         PTCLDY    77  57  50 VRB2      30.23F
VAL MARIE      N/A       82  50  33 NE2        N/A
ASSINIBOIA     N/A       77  50  39 NE8        N/A
CORONACH       N/A       81  50  34 N7         N/A

$$




USA.gov is the U.S. government's official web portal to all federal, state and local government web resources and services.